STARLINK-32281, 60375

Orbit data source: Space-Track

STARLINK-32281, 60375 is a payload satellite owned by SpaceX/Seattle (US) in LEO that was launched on Sun, 04 Aug 2024 UTC via an FALCON 9 launch vehicle from the Air Force Western Test Range (AFWTR). Payload-class satellites include a variety of spacecraft equipped with specific instruments for various scientific and technological missions. These include communications satellites like Starlink; space stations such as the ISS; scientific satellites like the Hubble; Earth observation satellites from companies like Planet Labs, Umbra, and HawkEye 360; GPS; miniature CubeSats for education and research; and military/defense satellites.

Loading next visibility...
Identifier
60375, 2024-138W
Orbit
LEO
Last TLE update
1 day ago
Origin
Manufacturer
SpaceX/Seattle
Mission
Operational Commercial Communications
Bus & Motor
STARLINK V2M, Unknown motor
Mass
730 kg wet, ~700 kg dry
Launch date (UTC)
2024-08-04 (11 months ago)
Launch vehicle
FALCON 9
Launch site
Air Force Western Test Range (AFWTR)
Object type
Payload
Rocket body
Debris
Shape & HBR
Box + 2 Pan, 29 m
Radar Cross Section
33.884 m², Large (>1 m²)

Expand to show TLE details & history

TLE from 1 day ago
0 STARLINK-32281
1 60375U 24138W   25181.00805254 -.00000028  00000-0  11177-4 0  9992
2 60375  53.1607  43.0919 0001039  90.7575 269.3545 15.30189318 51848
Epoch: 2025-06-30T00:11Z
TLE epoch observation values (Epoch: 2025-06-30T00:11:35.739Z)
Latitude
-0°
Longitude
121.86895°
Altitude
476.155 km
Speed
7.629 km/s
True Right ascension
02h 52m 22s
True Declination
0° 00' 00"
Sunlit
Object was in daylight at epoch
Visualization orbit readout
Latitude
-48.2498°
Longitude
60.17977°
Altitude
492.475 km
Speed
7.618 km/s
Apparent Right ascension
00h 31m 19s
Apparent Declination
-46° 59' 22"
Sunlit
Object is in full shadow
Visualization observer readout
Local Sidereal Time
14:09:45
Azimuth
119.833° SE
Elevation
-70.886°
Doppler factor
1
Orbital elements
Apogee altitude
476.215 km
Perigee altitude
474.791 km
Semi-major axis
6,853.64 km
Eccentricity
0.0001
Inclination
53.1607°
RAAN
43.0919°
Arg. of periapsis
90.7575°
True anomaly
Unknown
Mean anomaly
269.3545°
Eccentric anomaly
Unknown
Mean motion
3.82526 °/min
Orbital period
94.11 mins
BSTAR
0.000011177
Loading maneuver chart data...
Loading SW <> Apogee altitude chart data...
Loading historical data...
Loading historical data...
Loading historical data...
Loading historical data...
Loading historical data...
Loading historical data...
Loading historical data...

STARLINK-32281 Visibility forecast

Observer location: undefined°, undefined°

Span
Click to sort rows by Start time (UTC) header in descending order
Start Az.
Max El. time (UTC)
Max El. Az.
Max El.
End time (UTC)
End Az.
6 mins2025-07-01 17:07:36.711Z224.968° SW2025-07-01 17:10:36.711Z156.19° SSE44.606°2025-07-01 17:13:36.711Z52.387° ENE
4 mins2025-07-01 18:47:36.711Z308.343° NW2025-07-01 18:48:36.711Z328.949° NNW18.159°2025-07-01 18:51:36.711Z24.153° NE
5 mins2025-07-01 23:43:36.711Z319.845° NNW2025-07-01 23:45:36.711Z23.922° NE42.472°2025-07-01 23:48:36.711Z119.681° SE
|